Latest Coastal Weather Observations for Troughton Island

IDD60701

Issued at 2:31 am CST Tuesday 26 September 2017 (issued every 10 minutes, with the page automatically refreshed every 10 minutes)

About coastal observations | Map of coastal stations | Coastal observations for NT | Marine services | Other Formats
Station Details ID: 001007 Name: TROUGHTON ISLAND Lat: -13.75 Lon: 126.15 Height: 6.0 m
Data from the previous 72 hours. | See also: Recent months at Troughton Island
Date/Time
CST
Temp
°C
Wind Pressure Rain since
9am
mm
Weather Cloud Vis
km
Sea
Height
m
Swell
Dir  Spd
kts
Gust
kts
hPa Trend Height
m
Period
s
Dir
26/02:30am 26.5 W 9 11 1010.6 - 0.0 - - - - - - -
26/02:00am 26.7 WSW 9 11 1010.8 - 0.0 - - - - - - -
26/01:30am 26.7 W 9 10 1011.0 - 0.0 - - - - - - -
26/01:00am 26.7 W 9 11 1011.4 - 0.0 - - - - - - -
26/12:30am 26.8 W 10 11 1011.5 - 0.0 - - - - - - -
26/12:00am 27.0 W 11 13 1011.7 - 0.0 - - - - - - -
 
Date/Time
CST
Temp
°C
Wind Pressure Rain since
9am
mm
Weather Cloud Vis
km
Sea
Height
m
Swell
Dir  Spd
kts
Gust
kts
hPa Trend Height
m
Period
s
Dir
25/11:30pm 26.8 WNW 12 14 1011.8 - 0.0 - - - - - - -
25/11:00pm 26.9 W 11 13 1011.9 - 0.0 - - - - - - -
25/10:30pm 26.9 WNW 13 15 1011.9 - 0.0 - - - - - - -
25/10:00pm 26.9 WNW 12 14 1011.9 - 0.0 - - - - - - -
25/09:30pm 27.0 WNW 12 15 1011.5 - 0.0 - - - - - - -
25/09:00pm 26.8 NW 12 14 1011.1 - 0.0 - - - - - - -
25/08:30pm 27.2 NW 13 16 1010.8 - 0.0 - - - - - - -
25/08:00pm 27.2 NW 13 16 1010.5 - 0.0 - - - - - - -
25/07:30pm 27.4 NW 12 14 1010.4 - 0.0 - - - - - - -
25/07:00pm 27.6 NW 11 13 1010.2 - 0.0 - - - - - - -
25/06:30pm 28.3 NW 11 12 1009.9 - 0.0 - - - - - - -
25/06:00pm 28.7 NW 11 13 1009.6 - 0.0 - - - - - - -
25/05:30pm 29.5 WNW 11 12 1009.4 - 0.0 - - - - - - -
25/05:00pm 29.9 WNW 11 12 1009.4 - 0.0 - - - - - - -
25/04:30pm 30.0 WNW 9 11 1009.5 - 0.0 - - - - - - -
25/04:00pm 29.8 WNW 9 11 1009.6 - 0.0 - - - - - - -
25/03:30pm 30.1 WNW 9 11 1009.9 - 0.0 - - - - - - -
25/03:00pm 30.5 WNW 9 11 1010.2 - 0.0 - - - - - - -
25/02:30pm 30.3 WNW 9 10 1010.5 - 0.0 - - - - - - -
25/02:00pm 30.5 W 8 10 1010.9 - 0.0 - - - - - - -
25/01:30pm 30.8 W 8 9 1011.4 - 0.0 - - - - - - -
25/01:00pm 29.7 W 7 9 1011.8 - 0.0 - - - - - - -
25/12:30pm 29.7 W 7 9 1012.3 - 0.0 - - - - - - -
25/12:00pm 29.5 W 7 8 1012.6 - 0.0 - - - - - - -
25/11:30am 29.3 W 7 8 1012.8 - 0.0 - - - - - - -
25/11:00am 29.0 WSW 6 7 1013.0 - 0.0 - - - - - - -
25/10:30am 28.7 WSW 7 8 1013.1 - 0.0 - - - - - - -
25/10:00am 28.8 WSW 7 8 1013.1 - 0.0 - - - - - - -
25/09:30am 28.8 SW 7 9 1013.0 - 0.0 - - - - - - -
25/09:00am 28.3 SW 9 10 1012.8 - 0.0 - - - - - - -
25/08:30am 27.6 SW 9 11 1012.7 - 0.0 - - - - - - -
25/08:00am 27.0 WSW 9 11 1012.5 - 0.0 - - - - - - -
25/07:30am 26.5 WSW 10 11 1012.2 - 0.0 - - - - - - -
25/07:00am 26.3 WSW 10 11 1011.9 - 0.0 - - - - - - -
25/06:30am 26.4 WSW 9 11 1011.6 - 0.0 - - - - - - -
25/06:00am 26.6 WSW 10 11 1011.3 - 0.0 - - - - - - -
25/05:30am 26.7 WSW 11 13 1011.0 - 0.0 - - - - - - -
25/05:00am 26.6 WSW 12 13 1010.7 - 0.0 - - - - - - -
25/04:30am 26.7 WSW 12 14 1010.6 - 0.0 - - - - - - -
25/04:00am 26.7 WSW 12 14 1010.6 - 0.0 - - - - - - -
25/03:30am 26.8 WSW 12 13 1010.7 - 0.0 - - - - - - -
25/03:00am 26.8 WSW 12 13 1010.6 - 0.0 - - - - - - -
25/02:30am 26.8 WSW 12 14 1010.7 - 0.0 - - - - - - -
25/02:00am 26.7 W 10 13 1010.8 - 0.0 - - - - - - -
25/01:30am 26.8 W 10 12 1010.9 - 0.0 - - - - - - -
25/01:00am 26.8 W 11 13 1011.1 - 0.0 - - - - - - -
25/12:30am 26.8 W 11 13 1011.3 - 0.0 - - - - - - -
25/12:00am 26.8 W 11 13 1011.7 - 0.0 - - - - - - -
 
Date/Time
CST
Temp
°C
Wind Pressure Rain since
9am
mm
Weather Cloud Vis
km
Sea
Height
m
Swell
Dir  Spd
kts
Gust
kts
hPa Trend Height
m
Period
s
Dir
24/11:30pm 26.9 W 12 13 1011.7 - 0.0 - - - - - - -
24/11:00pm 26.9 W 12 14 1011.9 - 0.0 - - - - - - -
24/10:30pm 26.9 W 11 13 1011.8 - 0.0 - - - - - - -
24/10:00pm 26.9 WNW 11 13 1011.8 - 0.0 - - - - - - -
24/09:30pm 27.0 WNW 12 14 1011.5 - 0.0 - - - - - - -
24/09:00pm 27.0 WNW 11 14 1011.1 - 0.0 - - - - - - -
24/08:30pm 27.3 WNW 12 15 1010.7 - 0.0 - - - - - - -
24/08:00pm 27.3 NW 13 16 1010.4 - 0.0 - - - - - - -
24/07:30pm 27.4 WNW 13 15 1010.1 - 0.0 - - - - - - -
24/07:00pm 27.6 WNW 13 15 1009.9 - 0.0 - - - - - - -
24/06:30pm 28.2 WNW 14 16 1009.5 - 0.0 - - - - - - -
24/06:00pm 28.8 NW 13 16 1009.3 - 0.0 - - - - - - -
24/05:30pm 28.9 NW 14 16 1009.3 - 0.0 - - - - - - -
24/05:00pm 29.3 NW 13 15 1009.3 - 0.0 - - - - - - -
24/04:30pm 30.1 NW 12 15 1009.5 - 0.0 - - - - - - -
24/04:00pm 29.8 NW 12 14 1009.6 - 0.0 - - - - - - -
24/03:30pm 29.7 NW 12 14 1009.9 - 0.0 - - - - - - -
24/03:00pm 29.8 NW 10 13 1010.1 - 0.0 - - - - - - -
24/02:30pm 30.1 WNW 11 12 1010.2 - 0.0 - - - - - - -
24/02:00pm 30.5 WNW 10 12 1010.7 - 0.0 - - - - - - -
24/01:30pm 30.2 W 10 11 1011.1 - 0.0 - - - - - - -
24/01:00pm 30.3 W 9 11 1011.6 - 0.0 - - - - - - -
24/12:30pm 29.5 W 9 10 1012.0 - 0.0 - - - - - - -
24/12:00pm 29.8 W 8 10 1012.5 - 0.0 - - - - - - -
24/11:30am 30.4 WSW 9 11 1012.6 - 0.0 - - - - - - -
24/11:00am 29.7 WSW 9 11 1012.8 - 0.0 - - - - - - -
24/10:30am 29.5 WSW 8 9 1013.3 - 0.0 - - - - - - -
24/10:00am 29.1 WSW 9 10 1013.5 - 0.0 - - - - - - -
24/09:30am 28.7 WSW 9 11 1013.5 - 0.0 - - - - - - -
24/09:00am 28.6 WSW 9 11 1013.4 - 0.0 - - - - - - -
24/08:30am 27.5 WSW 10 11 1013.0 - 0.0 - - - - - - -
24/08:00am 26.9 WSW 10 12 1012.7 - 0.0 - - - - - - -
24/07:30am 26.4 WSW 10 12 1012.6 - 0.0 - - - - - - -
24/07:00am 26.2 WSW 10 12 1012.2 - 0.0 - - - - - - -
24/06:30am 26.3 WSW 11 13 1012.0 - 0.0 - - - - - - -
24/06:00am 26.3 WSW 11 13 1011.9 - 0.0 - - - - - - -
24/05:30am 26.4 WSW 12 14 1011.7 - 0.0 - - - - - - -
24/05:00am 26.3 WSW 11 13 1011.6 - 0.0 - - - - - - -
24/04:30am 26.4 W 10 11 1011.5 - 0.0 - - - - - - -
24/04:00am 26.4 W 10 12 1011.7 - 0.0 - - - - - - -
24/03:30am 26.5 W 11 12 1011.8 - 0.0 - - - - - - -
24/03:00am 26.6 W 11 12 1012.1 - 0.0 - - - - - - -
24/02:30am 26.5 W 10 11 1012.4 - 0.0 - - - - - - -
24/02:00am 26.5 WNW 10 12 1012.5 - 0.0 - - - - - - -
24/01:30am 26.6 WNW 11 13 1012.8 - 0.0 - - - - - - -
24/01:00am 26.6 WNW 10 11 1012.9 - 0.0 - - - - - - -
24/12:30am 26.7 WNW 11 13 1013.1 - 0.0 - - - - - - -
24/12:00am 26.7 WNW 11 13 1013.2 - 0.0 - - - - - - -
 
Date/Time
CST
Temp
°C
Wind Pressure Rain since
9am
mm
Weather Cloud Vis
km
Sea
Height
m
Swell
Dir  Spd
kts
Gust
kts
hPa Trend Height
m
Period
s
Dir
23/11:30pm 26.8 WNW 11 12 1013.3 - 0.0 - - - - - - -
23/11:00pm 26.7 WNW 11 12 1013.5 - 0.0 - - - - - - -
23/10:30pm 26.7 NW 10 12 1013.4 - 0.0 - - - - - - -
23/10:00pm 26.8 NW 12 14 1013.3 - 0.0 - - - - - - -
23/09:30pm 26.9 NW 12 15 1012.8 - 0.0 - - - - - - -
23/09:00pm 26.8 NW 13 16 1012.3 - 0.0 - - - - - - -
23/08:30pm 26.9 NW 14 16 1012.2 - 0.0 - - - - - - -
23/08:00pm 27.1 NW 14 17 1011.9 - 0.0 - - - - - - -
23/07:30pm 27.2 NW 15 18 1011.6 - 0.0 - - - - - - -
23/07:00pm 27.4 NW 15 17 1011.2 - 0.0 - - - - - - -
23/06:30pm 27.9 NW 15 19 1010.8 - 0.0 - - - - - - -
23/06:00pm 28.5 NW 16 19 1010.7 - 0.0 - - - - - - -
23/05:30pm 29.0 NW 14 16 1010.7 - 0.0 - - - - - - -
23/05:00pm 29.4 NW 12 15 1010.7 - 0.0 - - - - - - -
23/04:30pm 29.9 NW 12 14 1010.5 - 0.0 - - - - - - -
23/04:00pm 30.4 NW 11 14 1010.4 - 0.0 - - - - - - -
23/03:30pm 30.2 WNW 12 14 1010.8 - 0.0 - - - - - - -
23/03:00pm 29.7 NW 10 12 1011.3 - 0.0 - - - - - - -
23/02:30pm 29.9 NW 10 12 1011.7 - 0.0 - - - - - - -
23/02:00pm 29.4 NW 9 11 1012.0 - 0.0 - - - - - - -
23/01:30pm 29.6 WNW 9 10 1012.3 - 0.0 - - - - - - -
23/01:00pm 29.9 W 8 9 1012.6 - 0.0 - - - - - - -
23/12:30pm 29.6 WSW 8 9 1012.9 - 0.0 - - - - - - -
23/12:00pm 29.8 SW 9 11 1013.3 - 0.0 - - - - - - -
23/11:30am 30.1 WSW 9 11 1013.7 - 0.0 - - - - - - -
23/11:00am 29.9 SW 8 11 1014.3 - 0.0 - - - - - - -
23/10:30am 29.3 SW 10 12 1014.5 - 0.0 - - - - - - -
23/10:00am 29.1 SW 8 10 1014.8 - 0.0 - - - - - - -
23/09:30am 29.2 SW 9 11 1014.8 - 0.0 - - - - - - -
23/09:00am 28.0 SW 7 9 1014.8 - 0.0 - - - - - - -
23/08:30am 27.6 SW 10 12 1014.1 - 0.0 - - - - - - -
23/08:00am 27.1 SW 10 13 1013.7 - 0.0 - - - - - - -
23/07:30am 26.5 SW 10 12 1013.4 - 0.0 - - - - - - -
23/07:00am 26.3 SW 11 13 1013.3 - 0.0 - - - - - - -
23/06:30am 26.3 WSW 10 11 1013.1 - 0.0 - - - - - - -
23/06:00am 26.3 SW 9 11 1012.8 - 0.0 - - - - - - -
23/05:30am 26.4 SW 10 12 1012.6 - 0.0 - - - - - - -
23/05:00am 26.5 WSW 9 11 1012.5 - 0.0 - - - - - - -
23/04:30am 26.5 WSW 9 10 1012.4 - 0.0 - - - - - - -

Other Formats:

Comma delimited format used in spreadsheet applications
http://www.bom.gov.au/fwo/IDD60701/IDD60701.94102.axf

JavaScript Object Notation format (JSON) in row-major order
http://www.bom.gov.au/fwo/IDD60701/IDD60701.94102.json